Time,TemperatureF,DewpointF,PressureIn,WindDirection,WindDirectionDegrees,WindSpeedMPH,WindSpeedGustMPH,Humidity,HourlyPrecipIn,Conditions,Clouds,dailyrainin,SoftwareType,DateUTC
2013-01-18 00:02:00,44.1,36.0,30.48,East,99,1.0,2.0,72,0.00,,,0.00,weatherlink.com 1.10,2013-01-18 06:02:00,
2013-01-18 00:17:00,43.9,36.0,30.48,East,97,1.0,2.0,73,0.00,,,0.00,weatherlink.com 1.10,2013-01-18 06:17:00,
2013-01-18 00:32:00,43.8,36.0,30.48,ESE,113,2.0,2.0,73,0.00,,,0.00,weatherlink.com 1.10,2013-01-18 06:32:00,
2013-01-18 00:47:00,42.6,35.0,30.48,East,88,1.0,1.0,75,0.00,,,0.00,weatherlink.com 1.10,2013-01-18 06:47:00,
2013-01-18 01:02:00,42.8,35.0,30.48,East,82,2.0,2.0,75,0.00,,,0.00,weatherlink.com 1.10,2013-01-18 07:02:00,
2013-01-18 01:17:00,42.4,35.0,30.48,East,91,2.0,3.0,76,0.00,,,0.00,weatherlink.com 1.10,2013-01-18 07:17:00,
2013-01-18 01:32:00,41.4,35.0,30.49,East,90,1.0,1.0,78,0.00,,,0.00,weatherlink.com 1.10,2013-01-18 07:32:00,
2013-01-18 01:47:00,41.6,36.0,30.49,ENE,71,3.0,3.0,79,0.00,,,0.00,weatherlink.com 1.10,2013-01-18 07:47:00,
2013-01-18 02:02:00,41.9,35.0,30.49,ENE,76,2.0,3.0,77,0.00,,,0.00,weatherlink.com 1.10,2013-01-18 08:02:00,
2013-01-18 02:17:00,41.4,35.0,30.49,ENE,77,2.0,2.0,78,0.00,,,0.00,weatherlink.com 1.10,2013-01-18 08:17:00,
2013-01-18 02:32:00,40.7,35.0,30.49,East,81,2.0,3.0,79,0.00,,,0.00,weatherlink.com 1.10,2013-01-18 08:32:00,
2013-01-18 02:47:00,40.8,35.0,30.49,ENE,72,1.0,2.0,79,0.00,,,0.00,weatherlink.com 1.10,2013-01-18 08:47:00,
2013-01-18 03:02:00,40.3,34.0,30.49,East,91,1.0,2.0,79,0.00,,,0.00,weatherlink.com 1.10,2013-01-18 09:02:00,
2013-01-18 03:17:00,39.3,34.0,30.49,East,91,0.0,0.0,81,0.00,,,0.00,weatherlink.com 1.10,2013-01-18 09:17:00,
2013-01-18 03:32:00,39.7,35.0,30.49,ESE,107,1.0,2.0,82,0.00,,,0.00,weatherlink.com 1.10,2013-01-18 09:32:00,
2013-01-18 03:47:00,39.6,34.0,30.49,ENE,77,2.0,2.0,81,0.00,,,0.00,weatherlink.com 1.10,2013-01-18 09:47:00,
2013-01-18 04:17:00,38.8,34.0,30.49,ENE,63,2.0,2.0,82,0.00,,,0.00,weatherlink.com 1.10,2013-01-18 10:17:00,
2013-01-18 04:32:00,38.5,34.0,30.49,ENE,72,2.0,2.0,83,0.00,,,0.00,weatherlink.com 1.10,2013-01-18 10:32:00,
2013-01-18 04:47:00,38.2,34.0,30.49,ENE,71,1.0,2.0,83,0.00,,,0.00,weatherlink.com 1.10,2013-01-18 10:47:00,
2013-01-18 05:02:00,38.4,34.0,30.49,ENE,65,1.0,2.0,83,0.00,,,0.00,weatherlink.com 1.10,2013-01-18 11:02:00,
2013-01-18 05:17:00,38.0,33.0,30.49,ENE,65,0.0,1.0,83,0.00,,,0.00,weatherlink.com 1.10,2013-01-18 11:17:00,
2013-01-18 05:32:00,36.4,32.0,30.49,ENE,65,0.0,0.0,84,0.00,,,0.00,weatherlink.com 1.10,2013-01-18 11:32:00,
2013-01-18 05:48:00,36.8,33.0,30.49,ESE,109,0.0,1.0,85,0.00,,,0.00,weatherlink.com 1.10,2013-01-18 11:48:00,
2013-01-18 06:03:00,35.7,32.0,30.49,ESE,108,0.0,0.0,86,0.00,,,0.00,weatherlink.com 1.10,2013-01-18 12:03:00,
2013-01-18 06:18:00,36.4,33.0,30.49,ESE,108,1.0,1.0,88,0.00,,,0.00,weatherlink.com 1.10,2013-01-18 12:18:00,
2013-01-18 06:33:00,36.7,33.0,30.49,ESE,105,1.0,2.0,87,0.00,,,0.00,weatherlink.com 1.10,2013-01-18 12:33:00,
2013-01-18 06:48:00,36.8,33.0,30.49,ESE,105,1.0,2.0,86,0.00,,,0.00,weatherlink.com 1.10,2013-01-18 12:48:00,
2013-01-18 07:03:00,35.8,32.0,30.50,ESE,105,1.0,1.0,86,0.00,,,0.00,weatherlink.com 1.10,2013-01-18 13:03:00,
2013-01-18 07:18:00,35.9,32.0,30.50,ESE,104,0.0,1.0,87,0.00,,,0.00,weatherlink.com 1.10,2013-01-18 13:18:00,
2013-01-18 07:33:00,36.3,33.0,30.50,ESE,105,1.0,1.0,86,0.00,,,0.00,weatherlink.com 1.10,2013-01-18 13:33:00,
2013-01-18 07:48:00,37.7,33.0,30.50,ESE,104,2.0,2.0,84,0.00,,,0.00,weatherlink.com 1.10,2013-01-18 13:48:00,
2013-01-18 08:03:00,39.0,34.0,30.51,East,96,2.0,2.0,82,0.00,,,0.00,weatherlink.com 1.10,2013-01-18 14:03:00,
2013-01-18 08:18:00,40.3,35.0,30.51,East,84,2.0,2.0,81,0.00,,,0.00,weatherlink.com 1.10,2013-01-18 14:18:00,
2013-01-18 08:33:00,41.5,35.0,30.52,East,84,2.0,3.0,79,0.00,,,0.00,weatherlink.com 1.10,2013-01-18 14:33:00,
2013-01-18 08:48:00,42.8,36.0,30.52,ENE,74,3.0,4.0,78,0.00,,,0.00,weatherlink.com 1.10,2013-01-18 14:48:00,
2013-01-18 09:03:00,44.6,37.0,30.52,ENE,63,3.0,5.0,76,0.00,,,0.00,weatherlink.com 1.10,2013-01-18 15:03:00,
2013-01-18 09:18:00,45.8,38.0,30.52,East,88,5.0,7.0,73,0.00,,,0.00,weatherlink.com 1.10,2013-01-18 15:18:00,
2013-01-18 09:33:00,46.6,38.0,30.53,ENE,68,4.0,7.0,73,0.00,,,0.00,weatherlink.com 1.10,2013-01-18 15:33:00,
2013-01-18 09:48:00,47.6,38.0,30.53,NE,39,4.0,7.0,69,0.00,,,0.00,weatherlink.com 1.10,2013-01-18 15:48:00,
2013-01-18 10:18:00,51.2,39.0,30.53,ENE,61,2.0,5.0,63,0.00,,,0.00,weatherlink.com 1.10,2013-01-18 16:18:00,
2013-01-18 10:33:00,53.3,40.0,30.53,ESE,111,2.0,4.0,60,0.00,,,0.00,weatherlink.com 1.10,2013-01-18 16:33:00,
2013-01-18 10:48:00,56.0,38.0,30.52,SSE,153,3.0,9.0,51,0.00,,,0.00,weatherlink.com 1.10,2013-01-18 16:48:00,
2013-01-18 11:03:00,57.8,38.0,30.52,ESE,107,3.0,7.0,48,0.00,,,0.00,weatherlink.com 1.10,2013-01-18 17:03:00,
2013-01-18 11:18:00,58.2,38.0,30.51,South,181,2.0,9.0,48,0.00,,,0.00,weatherlink.com 1.10,2013-01-18 17:18:00,
2013-01-18 11:33:00,59.4,39.0,30.50,SE,124,4.0,9.0,47,0.00,,,0.00,weatherlink.com 1.10,2013-01-18 17:33:00,
2013-01-18 11:49:00,59.9,39.0,30.49,ESE,115,7.0,9.0,47,0.00,,,0.00,weatherlink.com 1.10,2013-01-18 17:49:00,
2013-01-18 12:04:00,60.7,38.0,30.48,SSE,160,4.0,7.0,43,0.00,,,0.00,weatherlink.com 1.10,2013-01-18 18:04:00,
2013-01-18 12:19:00,61.1,38.0,30.46,SSE,166,5.0,8.0,43,0.00,,,0.00,weatherlink.com 1.10,2013-01-18 18:19:00,
2013-01-18 12:34:00,61.6,38.0,30.45,SSE,167,4.0,7.0,42,0.00,,,0.00,weatherlink.com 1.10,2013-01-18 18:34:00,
2013-01-18 12:49:00,61.8,37.0,30.43,South,186,5.0,9.0,40,0.00,,,0.00,weatherlink.com 1.10,2013-01-18 18:49:00,
2013-01-18 13:04:00,62.1,37.0,30.42,SW,219,3.0,9.0,40,0.00,,,0.00,weatherlink.com 1.10,2013-01-18 19:04:00,
2013-01-18 13:19:00,62.8,37.0,30.41,South,179,0.0,10.0,38,0.00,,,0.00,weatherlink.com 1.10,2013-01-18 19:19:00,
2013-01-18 13:34:00,63.2,37.0,30.40,SSE,155,2.0,8.0,38,0.00,,,0.00,weatherlink.com 1.10,2013-01-18 19:34:00,
2013-01-18 13:49:00,63.7,37.0,30.38,SW,222,4.0,7.0,38,0.00,,,0.00,weatherlink.com 1.10,2013-01-18 19:49:00,
2013-01-18 14:04:00,63.8,37.0,30.38,South,181,2.0,8.0,37,0.00,,,0.00,weatherlink.com 1.10,2013-01-18 20:04:00,
2013-01-18 14:19:00,63.8,36.0,30.37,SSE,155,4.0,8.0,35,0.00,,,0.00,weatherlink.com 1.10,2013-01-18 20:19:00,
2013-01-18 14:34:00,64.5,36.0,30.36,SE,139,4.0,7.0,35,0.00,,,0.00,weatherlink.com 1.10,2013-01-18 20:34:00,
2013-01-18 14:49:00,64.4,35.0,30.36,SSE,167,2.0,9.0,34,0.00,,,0.00,weatherlink.com 1.10,2013-01-18 20:49:00,
2013-01-18 15:04:00,64.5,35.0,30.36,SSE,162,6.0,7.0,34,0.00,,,0.00,weatherlink.com 1.10,2013-01-18 21:04:00,
2013-01-18 15:19:00,64.6,35.0,30.35,ESE,110,2.0,8.0,33,0.00,,,0.00,weatherlink.com 1.10,2013-01-18 21:19:00,
2013-01-18 15:34:00,65.3,35.0,30.34,SW,215,1.0,4.0,33,0.00,,,0.00,weatherlink.com 1.10,2013-01-18 21:34:00,
2013-01-18 15:49:00,65.0,36.0,30.34,SE,128,2.0,7.0,34,0.00,,,0.00,weatherlink.com 1.10,2013-01-18 21:49:00,
2013-01-18 16:04:00,64.3,34.0,30.34,SSW,204,3.0,7.0,33,0.00,,,0.00,weatherlink.com 1.10,2013-01-18 22:04:00,
2013-01-18 16:19:00,63.9,35.0,30.34,SE,145,5.0,7.0,34,0.00,,,0.00,weatherlink.com 1.10,2013-01-18 22:19:00,
2013-01-18 16:34:00,64.4,35.0,30.34,SSE,155,4.0,7.0,34,0.00,,,0.00,weatherlink.com 1.10,2013-01-18 22:34:00,
2013-01-18 16:49:00,63.9,34.0,30.34,SSE,151,1.0,6.0,33,0.00,,,0.00,weatherlink.com 1.10,2013-01-18 22:49:00,
2013-01-18 17:04:00,63.7,35.0,30.34,SE,135,2.0,5.0,35,0.00,,,0.00,weatherlink.com 1.10,2013-01-18 23:04:00,
2013-01-18 17:19:00,62.9,35.0,30.34,SSE,148,2.0,5.0,35,0.00,,,0.00,weatherlink.com 1.10,2013-01-18 23:19:00,
2013-01-18 17:35:00,61.9,34.0,30.34,SSE,147,2.0,4.0,36,0.00,,,0.00,weatherlink.com 1.10,2013-01-18 23:35:00,
2013-01-18 17:49:00,60.8,35.0,30.34,ESE,117,0.0,1.0,38,0.00,,,0.00,weatherlink.com 1.10,2013-01-18 23:49:00,
2013-01-18 18:04:00,59.2,35.0,30.34,ESE,115,0.0,0.0,40,0.00,,,0.00,weatherlink.com 1.10,2013-01-19 00:04:00,
2013-01-18 18:19:00,56.7,34.0,30.34,ESE,115,0.0,0.0,43,0.00,,,0.00,weatherlink.com 1.10,2013-01-19 00:19:00,
2013-01-18 18:34:00,54.4,34.0,30.35,ESE,116,0.0,0.0,47,0.00,,,0.00,weatherlink.com 1.10,2013-01-19 00:34:00,
2013-01-18 18:49:00,53.1,34.0,30.35,ESE,116,0.0,0.0,49,0.00,,,0.00,weatherlink.com 1.10,2013-01-19 00:49:00,
2013-01-18 19:04:00,51.6,34.0,30.35,ESE,116,0.0,0.0,52,0.00,,,0.00,weatherlink.com 1.10,2013-01-19 01:04:00,
2013-01-18 19:19:00,50.2,34.0,30.35,ESE,115,0.0,0.0,54,0.00,,,0.00,weatherlink.com 1.10,2013-01-19 01:19:00,
2013-01-18 19:34:00,51.0,35.0,30.35,SE,134,0.0,0.0,54,0.00,,,0.00,weatherlink.com 1.10,2013-01-19 01:34:00,
2013-01-18 19:49:00,52.4,35.0,30.35,SE,134,0.0,0.0,52,0.00,,,0.00,weatherlink.com 1.10,2013-01-19 01:49:00,
2013-01-18 20:04:00,52.5,35.0,30.35,SE,136,0.0,0.0,51,0.00,,,0.00,weatherlink.com 1.10,2013-01-19 02:04:00,
2013-01-18 20:19:00,53.6,35.0,30.36,SE,124,2.0,3.0,49,0.00,,,0.00,weatherlink.com 1.10,2013-01-19 02:19:00,
2013-01-18 20:34:00,53.9,35.0,30.36,SE,143,3.0,5.0,50,0.00,,,0.00,weatherlink.com 1.10,2013-01-19 02:34:00,
2013-01-18 20:49:00,54.1,37.0,30.36,SE,140,3.0,8.0,53,0.00,,,0.00,weatherlink.com 1.10,2013-01-19 02:49:00,
2013-01-18 21:04:00,52.9,38.0,30.36,SE,131,3.0,6.0,57,0.00,,,0.00,weatherlink.com 1.10,2013-01-19 03:04:00,
2013-01-18 21:19:00,52.0,38.0,30.36,SSE,150,5.0,8.0,60,0.00,,,0.00,weatherlink.com 1.10,2013-01-19 03:19:00,
2013-01-18 21:34:00,51.7,39.0,30.35,SE,131,2.0,7.0,62,0.00,,,0.00,weatherlink.com 1.10,2013-01-19 03:34:00,
2013-01-18 21:49:00,50.4,39.0,30.35,ESE,115,3.0,4.0,65,0.00,,,0.00,weatherlink.com 1.10,2013-01-19 03:49:00,
2013-01-18 22:04:00,49.5,39.0,30.35,SE,132,3.0,5.0,67,0.00,,,0.00,weatherlink.com 1.10,2013-01-19 04:04:00,
2013-01-18 22:19:00,49.7,40.0,30.34,ESE,117,4.0,8.0,69,0.00,,,0.00,weatherlink.com 1.10,2013-01-19 04:19:00,
2013-01-18 22:35:00,49.6,41.0,30.34,SE,141,3.0,7.0,71,0.00,,,0.00,weatherlink.com 1.10,2013-01-19 04:35:00,
2013-01-18 22:50:00,49.3,41.0,30.34,SSE,148,5.0,8.0,72,0.00,,,0.00,weatherlink.com 1.10,2013-01-19 04:50:00,
2013-01-18 23:05:00,48.9,41.0,30.34,SE,140,5.0,7.0,74,0.00,,,0.00,weatherlink.com 1.10,2013-01-19 05:05:00,
2013-01-18 23:20:00,48.9,42.0,30.33,East,90,6.0,9.0,77,0.00,,,0.00,weatherlink.com 1.10,2013-01-19 05:20:00,
2013-01-18 23:35:00,48.8,43.0,30.33,ESE,120,6.0,8.0,79,0.00,,,0.00,weatherlink.com 1.10,2013-01-19 05:35:00,
2013-01-18 23:50:00,48.5,43.0,30.33,SE,127,5.0,8.0,81,0.00,,,0.00,weatherlink.com 1.10,2013-01-19 05:50:00,